• In Kazakhstan
  • List of Countries
  • For 7 days
  • Water Temperature
  • Weather Map
  • News
  • Weather Widgets
  • user-avatar
    Login

    Hourly Weather Kabul

    Today, 22 August, Thursday

    Time Temperature Precipitation Wind Pressure Humidity
    00:00 +22°C° 0 mm 1 mps 609 mmHg 20%
    01:00 +21°C° 0 mm 1 mps 608 mmHg 22%
    02:00 +20°C° 0 mm 1 mps 608 mmHg 23%
    03:00 +19°C° 0 mm 1 mps 608 mmHg 24%
    04:00 +17°C° 0 mm 0 mps 607 mmHg 25%
    05:00 +16°C° 0 mm 0 mps 607 mmHg 25%
    06:00 +18°C° 0 mm 0 mps 608 mmHg 22%
    07:00 +19°C° 0 mm 0 mps 609 mmHg 20%
    08:00 +21°C° 0 mm 0 mps 610 mmHg 17%
    09:00 +24°C° 0 mm 1 mps 610 mmHg 16%
    10:00 +26°C° 0 mm 1 mps 611 mmHg 14%
    11:00 +28°C° 0 mm 1 mps 611 mmHg 13%
    12:00 +29°C° 0 mm 1 mps 611 mmHg 11%
    13:00 +30°C° 0 mm 2 mps 611 mmHg 10%
    14:00 +31°C° 0 mm 2 mps 611 mmHg 9%
    15:00 +31°C° 0 mm 2 mps 611 mmHg 9%
    16:00 +31°C° 0 mm 3 mps 611 mmHg 9%
    17:00 +33°C° 0 mm 3 mps 611 mmHg 9%
    18:00 +30°C° 0 mm 3 mps 611 mmHg 13%
    19:00 +28°C° 0 mm 3 mps 610 mmHg 17%
    20:00 +27°C° 0 mm 2 mps 610 mmHg 21%
    21:00 +26°C° 0 mm 2 mps 610 mmHg 24%
    22:00 +25°C° 0 mm 1 mps 610 mmHg 27%
    23:00 +24°C° 0 mm 1 mps 610 mmHg 30%

    Tomorrow, 23 August, Friday

    Time Temperature Precipitation Wind Pressure Humidity
    00:00 +23°C° 0 mm 1 mps 610 mmHg 30%
    01:00 +22°C° 0 mm 1 mps 609 mmHg 31%
    02:00 +20°C° 0 mm 0 mps 609 mmHg 31%
    03:00 +19°C° 0 mm 0 mps 609 mmHg 32%
    04:00 +19°C° 0 mm 0 mps 608 mmHg 33%
    05:00 +18°C° 0 mm 0 mps 608 mmHg 34%
    06:00 +19°C° 0 mm 0 mps 609 mmHg 31%
    07:00 +21°C° 0 mm 0 mps 610 mmHg 27%
    08:00 +22°C° 0 mm 0 mps 611 mmHg 24%
    09:00 +24°C° 0 mm 0 mps 611 mmHg 21%
    10:00 +27°C° 0 mm 1 mps 611 mmHg 19%
    11:00 +29°C° 0 mm 1 mps 612 mmHg 16%
    12:00 +30°C° 0 mm 1 mps 612 mmHg 14%
    13:00 +31°C° 0 mm 2 mps 611 mmHg 12%
    14:00 +32°C° 0 mm 2 mps 611 mmHg 10%
    15:00 +33°C° 0 mm 3 mps 611 mmHg 10%
    16:00 +33°C° 0 mm 3 mps 611 mmHg 10%
    17:00 +34°C° 0 mm 4 mps 611 mmHg 10%
    18:00 +32°C° 0 mm 4 mps 611 mmHg 14%
    19:00 +29°C° 0 mm 4 mps 611 mmHg 17%
    20:00 +27°C° 0 mm 3 mps 610 mmHg 20%
    21:00 +26°C° 0 mm 3 mps 610 mmHg 22%
    22:00 +25°C° 0 mm 2 mps 610 mmHg 24%
    23:00 +24°C° 0 mm 2 mps 610 mmHg 26%

    Day after tomorrow, 24 August, Saturday

    Time Temperature Precipitation Wind Pressure Humidity
    00:00 +23°C° 0 mm 1 mps 610 mmHg 27%
    01:00 +23°C° 0 mm 1 mps 609 mmHg 28%
    02:00 +22°C° 0 mm 1 mps 609 mmHg 28%
    03:00 +21°C° 0 mm 1 mps 609 mmHg 29%
    04:00 +19°C° 0 mm 0 mps 609 mmHg 30%
    05:00 +18°C° 0 mm 0 mps 608 mmHg 31%
    06:00 +19°C° 0 mm 0 mps 609 mmHg 28%
    07:00 +21°C° 0 mm 0 mps 610 mmHg 25%
    08:00 +22°C° 0 mm 0 mps 611 mmHg 22%
    09:00 +26°C° 0 mm 1 mps 611 mmHg 21%
    10:00 +27°C° 0 mm 1 mps 611 mmHg 19%
    11:00 +28°C° 0 mm 1 mps 612 mmHg 17%
    12:00 +30°C° 0 mm 1 mps 612 mmHg 15%
    13:00 +31°C° 0 mm 2 mps 611 mmHg 14%
    14:00 +32°C° 0 mm 2 mps 611 mmHg 13%
    15:00 +33°C° 0 mm 3 mps 611 mmHg 13%
    16:00 +33°C° 0 mm 3 mps 611 mmHg 13%
    17:00 +33°C° 0 mm 4 mps 611 mmHg 13%
    18:00 +32°C° 0 mm 4 mps 611 mmHg 16%
    19:00 +30°C° 0 mm 3 mps 611 mmHg 20%
    20:00 +28°C° 0 mm 3 mps 611 mmHg 23%
    21:00 +27°C° 0 mm 2 mps 610 mmHg 24%
    22:00 +26°C° 0 mm 2 mps 610 mmHg 26%
    23:00 +25°C° 0 mm 1 mps 610 mmHg 28%

    25 August, Sunday

    Time Temperature Precipitation Wind Pressure Humidity
    00:00 +24°C° 0 mm 1 mps 609 mmHg 28%
    01:00 +23°C° 0 mm 1 mps 609 mmHg 29%
    02:00 +22°C° 0 mm 1 mps 609 mmHg 30%
    03:00 +20°C° 0 mm 0 mps 608 mmHg 31%
    04:00 +19°C° 0 mm 0 mps 608 mmHg 33%
    05:00 +19°C° 0 mm 0 mps 608 mmHg 34%
    06:00 +20°C° 0 mm 0 mps 609 mmHg 31%
    07:00 +21°C° 0 mm 0 mps 609 mmHg 27%
    08:00 +23°C° 0 mm 0 mps 610 mmHg 24%
    09:00 +26°C° 0 mm 1 mps 611 mmHg 22%
    10:00 +28°C° 0 mm 1 mps 611 mmHg 21%
    11:00 +29°C° 0 mm 1 mps 611 mmHg 19%
    12:00 +30°C° 0 mm 1 mps 611 mmHg 18%
    13:00 +31°C° 0 mm 2 mps 611 mmHg 16%
    14:00 +32°C° 0 mm 2 mps 612 mmHg 14%
    15:00 +34°C° 0 mm 3 mps 611 mmHg 15%
    16:00 +34°C° 0 mm 3 mps 611 mmHg 16%
    17:00 +34°C° 0 mm 4 mps 611 mmHg 17%
    18:00 +31°C° 0 mm 3 mps 611 mmHg 22%
    19:00 +30°C° 0 mm 3 mps 611 mmHg 27%
    20:00 +28°C° 0 mm 2 mps 611 mmHg 32%
    21:00 +27°C° 0 mm 2 mps 611 mmHg 34%
    22:00 +26°C° 0 mm 1 mps 611 mmHg 36%
    23:00 +26°C° 0 mm 1 mps 611 mmHg 39%

    26 August, Monday

    Time Temperature Precipitation Wind Pressure Humidity
    00:00 +25°C° 0.1 mm 1 mps 611 mmHg 40%
    01:00 +24°C° 0.1 mm 1 mps 610 mmHg 41%
    02:00 +23°C° 0.1 mm 1 mps 610 mmHg 42%
    03:00 +21°C° 0 mm 0 mps 610 mmHg 43%
    04:00 +20°C° 0 mm 0 mps 609 mmHg 43%
    05:00 +20°C° 0 mm 0 mps 609 mmHg 44%
    06:00 +21°C° 0 mm 0 mps 610 mmHg 40%
    07:00 +22°C° 0 mm 0 mps 611 mmHg 37%
    08:00 +23°C° 0 mm 0 mps 611 mmHg 33%
    09:00 +27°C° 0 mm 1 mps 612 mmHg 30%
    10:00 +28°C° 0 mm 1 mps 612 mmHg 27%
    11:00 +30°C° 0 mm 1 mps 612 mmHg 24%
    12:00 +31°C° 0 mm 2 mps 612 mmHg 22%
    13:00 +32°C° 0 mm 2 mps 612 mmHg 20%
    14:00 +34°C° 0 mm 2 mps 612 mmHg 18%
    15:00 +33°C° 0 mm 3 mps 612 mmHg 18%
    16:00 +33°C° 0 mm 3 mps 612 mmHg 18%
    17:00 +33°C° 0 mm 3 mps 612 mmHg 19%
    18:00 +31°C° 0 mm 3 mps 612 mmHg 21%
    19:00 +30°C° 0 mm 3 mps 612 mmHg 24%
    20:00 +28°C° 0 mm 3 mps 611 mmHg 26%
    21:00 +27°C° 0 mm 2 mps 611 mmHg 28%
    22:00 +26°C° 0 mm 2 mps 611 mmHg 29%
    23:00 +26°C° 0 mm 2 mps 611 mmHg 30%

    27 August, Tuesday

    Time Temperature Precipitation Wind Pressure Humidity
    00:00 +24°C° 0 mm 1 mps 611 mmHg 30%
    01:00 +23°C° 0 mm 1 mps 610 mmHg 29%
    02:00 +22°C° 0 mm 1 mps 609 mmHg 29%
    03:00 +22°C° 0 mm 1 mps 609 mmHg 29%
    04:00 +21°C° 0 mm 1 mps 609 mmHg 29%
    05:00 +19°C° 0 mm 0 mps 609 mmHg 29%
    06:00 +22°C° 0 mm 1 mps 609 mmHg 25%
    07:00 +24°C° 0 mm 1 mps 610 mmHg 22%
    08:00 +25°C° 0 mm 1 mps 611 mmHg 19%
    09:00 +26°C° 0 mm 1 mps 611 mmHg 17%
    10:00 +28°C° 0 mm 1 mps 611 mmHg 16%
    11:00 +29°C° 0 mm 1 mps 612 mmHg 14%
    12:00 +31°C° 0 mm 2 mps 612 mmHg 13%
    13:00 +32°C° 0 mm 2 mps 612 mmHg 11%
    14:00 +34°C° 0 mm 2 mps 612 mmHg 10%
    15:00 +34°C° 0 mm 3 mps 612 mmHg 10%
    16:00 +34°C° 0 mm 4 mps 611 mmHg 10%
    17:00 +34°C° 0 mm 5 mps 611 mmHg 10%
    18:00 +32°C° 0 mm 4 mps 611 mmHg 12%
    19:00 +29°C° 0 mm 3 mps 611 mmHg 13%
    20:00 +27°C° 0 mm 3 mps 611 mmHg 15%
    21:00 +26°C° 0 mm 2 mps 611 mmHg 16%
    22:00 +25°C° 0 mm 2 mps 610 mmHg 18%
    23:00 +24°C° 0 mm 1 mps 610 mmHg 19%
    Show more